Weather in Voru

Estonia     57°50′30″N   27°00′54″E
temp.,
°C
wind,
m/s
gust,
m/s
humid.,
%
clouds,
%
prec.,
mm/h
press.,
hPa
HPBL,
m
24 june, thu
thu2400:00+20nnw119586 0.0 101813
03:00+19nnw129646 0.0 101823
06:00+19e128987 0.1 101794
09:00+24sw247784 0.3 1017615
12:00+28w345428 0.0 10171400
15:00+30w354324 0.0 10162068
18:00+28wnw345299 0.0 1015777
21:00+22ene25843 0.2 1015138
25 june, fri
fri2500:00+19nne12945 0.9 101523
03:00+18ene119724 1.1 101514
06:00+19ene019775 0.5 101449
09:00+23ne118175 0.6 1012310
12:00+21ne119198 4.1 101327
15:00+21ssw2388100 6.0 101265
18:00+26wnw12645 0.2 1011651
21:00+21ne2590100 1.5 101197
26 june, sat
sat2600:00+19ene229642 1.9 101152
03:00+18ene1197100 1.9 101111
06:00+19n119783 0.0 101157
09:00+23ne11805 0.0 1011415
12:00+28se015627 0.0 10111410
15:00+26ssw347412 1.4 1011707
18:00+27w24634 1.3 1011947
21:00+22w488677 1.4 1012489
27 june, sun
sun2700:00+18wsw249884 0.0 101290
03:00+17wsw269858 0.0 1013198
06:00+16sw269628 0.0 1013227
09:00+21wsw237338 0.0 1013721
12:00+24sw345661 0.0 10131454
15:00+26sw454329 0.1 10122177
18:00+22wsw5661100 0.0 10131012
21:00+20w37745 0.0 1013552
28 june, mon
mon2800:00+15sw279016 0.0 1014147
03:00+14sw3109511 0.0 1013338
06:00+16wsw4986100 0.0 1013492
09:00+20w576354 0.0 1014818
12:00+24w574476 0.0 10141580
15:00+26wnw564037 0.0 10132224
18:00+23wnw475599 0.0 1014683
21:00+20w23704 0.0 101460